SCP
0 0 0 0 0 0 0 0 0 0 0 0 0 0 0 0 0 0 0 0 0 0 0 0 0 0 0 0 0 0 0 0 0 0 0 0 0 0 0 0 0 0 0 0
0 0 0 0 0 0 0 0 0 0 0 0 0 0 0 0 0 0 0 0 0 0 0 0 0 0 0 0 0 0 0 0 0 0 0 0 0 0 0 0 0 0 0 0
0 0 0 0 0 0 0 0 0 0 0 0 0 0 0 0 0 0 0 0 0 0 0 0 0 0 0 0 0 0 0 0 0 0 0 0 0 0 0 0 0 0 0 0
0 0 0 0 0 0 0 0 0 0 0 0 0 0 0 0 0 0 0 0 0 0 0 0 0 0 0 0 0 0 0 0 0 0 0 0 0 0 0 0 0 0 0 0
0 0 0 0 0 0 0 0 0 0 0 0 0 0 0 0 0 0 0 0 0 0 0 0 0 0 0 0 0 0 0 0 0 0 0 0 0 0 0 0 0 0 0 0
0 0 0 0 0 0 0 0 0 0 0 0 0 0 0 0 0 0 0 0 0 0 0 0 0 0 0 0 0 0 0 0 -0 -0 -0 -0 -0 0 0 0 0 0 0 0
0 0 0 0 0 0 0 0 0 0 0 0 0 0 0 0 0 0 0 0 0 0 0 0 0 0 0 0 0 0 0 0 -0 -0 -0 -0 -0 -0 0 0 0 0 0 0
0 0 0 0 0 0 0 0 0 0 0 0 0 0 0 0 0 0 0 0 0 0 0 0 0 0 0 0 0 -0 -0 -0 -0 0 0 0 0 0 0 0 0 0 0 0
0 0 0 0 0 0 0 0 0 0 0 0 0 0 0 0 0 0 0 0 0 0 0 0 0 0 0 -0 -0 -0 -0 0 0 0 0 0 0 0 0 0 0 0 0 0
0 0 0 0 0 0 0 0 0 0 0 0 0 0 0 0 0 0 0 0 0 0 0 0 0 0 0 0 0 0 0 0 0 0 0 0 0 0 0 0 0 0 0 0
0 0 0 0 0 0 0 0 0 0 0 0 0 0 0 0 0 0 0 0 0 0 0 0 0 0 0 0 0 0 0 0 0 0 0 0 0 0 0 0 0 0 0 0
0 0 0 0 0 0 0 0 0 0 0 0 0 0 0 0 0 0 0 0 0 0 0 0 0 0 0 0 0 0 0 0 0 0 0 0 0 0 0 0 0 0 0 0
0 0 0 0 0 0 0 0 0 0 0 0 0 0 0 0 0 0 0 0 0 0 0 0 0 0 0 0 0 0 0 0 0 0 0 0 0 0 0 0 0 0 0 0
0 0 0 0 0 0 0 0 0 0 0 0 0 0 0 0 0 0 0 0 0 0 0 0 0 0 0 0 0 0 0 0 0 0 0 0 0 0 0 0 0 0 0 0
0 0 0 0 0 0 0 0 0 0 0 0 0 0 0 0 0 0 0 0 0 0 0 0 0 0 0 0 0 0 0 0 0 0 0 0 0 0 0 0 0 0 0 0
0 0 0 0 0 0 0 0 0 0 0 0 0 0 0 0 0 0 0 0 0 0 0 0 0 0 0 0 0 0 0 0 0 0 0 0 0 0 0 0 0 0 0 0
0 0 0 0 0 0 0 0 0 0 0 0 0 0 0 0 0 0 0 0 0 0 0 0 0 0 0 0 0 0 0 0 0 0 0 0 0 0 0 0 0 0 0 0
0 0 0 0 0 0 0 0 0 0 0 0 0 0 0 0 0 0 0 0 0 0 0 0 0 0 0 0 0 0 0 0 0 0 0 0 0 0 0 0 0 0 0 0
0 0 0 0 0 0 0 0 0 0 0 0 0 0 0 0 0 0 0 0 0 0 0 0 0 0 0 0 0 0 0 0 0 0 0 0 0 0 0 0 0 0 0 0
0 0 0 0 0 0 0 0 0 0 0 0 0 0 0 0 0 0 0 0 0 0 0 0 0 0 0 0 0 0 0 0 0 0 0 0 0 0 0 0 0 0 0 0
0 0 0 0 0 0 0 0 0 0 0 0 0 0 0 0 0 0 0 0 0 0 0 0 0 0 0 0 0 0 0 0 0 0 0 0 0 0 0 0 0 0 0 0
0 0 0 0 0 0 0 0 0 0 0 0 0 0 0 0 0 0 0 0 0 0 0 0 0 0 0 0 0 0 0 0 0 0 0 0 0 0 0 0 0 0 0 0
0 0 0 0 0 0 0 0 0 0 0 0 0 0 0 0 0 0 0 0 0 0 0 0 0 0 0 0 0 0 0 0 0 0 0 0 0 0 0 0 0 0 0 0
0 0 0 0 0 0 0 0 0 0 0 0 0 0 0 0 0 0 0 0 0 0 0 0 0 0 0 0 0 0 0 0 0 0 0 0 0 0 0 0 0 0 0 0
0 0 0 0 0 0 0 0 0 0 0 0 0 0 0 0 0 0 0 0 0 0 0 0 0 0 0 0 0 0 0 0 0 0 0 0 0 0 0 0 0 0 0 0
0 0 0 0 0 0 0 0 0 0 0 0 0 0 0 0 0 0 0 0 0 0 0 0 0 0 0 0 0 0 0 0 0 0 0 0 0 0 0 0 0 0 0 0
Wind_Speed_500mb
5 7 15 26 20 5 8 7 9 10 7 5 12 16 12 26 34 29 30 33 35 37 38 38 36 32 27 21 21 26 21 24 14 9 8 8 8 10 8 15 20 24 23 21
7 14 22 8 9 9 9 7 12 13 3 7 12 20 12 25 18 23 30 34 36 39 43 48 52 53 56 54 52 46 39 29 24 17 12 8 5 6 4 13 15 14 15 20
16 10 7 15 9 10 7 10 7 12 9 1 10 13 7 9 29 31 30 30 34 38 42 45 49 53 55 59 60 60 58 54 49 37 22 14 10 7 1 7 12 19 21 22
11 11 10 9 10 13 5 13 6 5 6 5 5 9 8 8 10 13 21 27 31 33 36 39 44 49 53 55 51 54 55 53 50 44 38 33 29 25 22 15 14 15 17 20
14 13 12 9 13 13 13 7 6 5 6 5 7 2 12 12 8 10 19 26 27 29 32 37 40 42 43 41 42 43 44 41 40 37 33 31 31 30 25 17 10 10 12 15
8 2 9 14 5 8 9 7 8 8 7 1 12 13 9 11 8 11 25 30 29 28 30 32 34 33 34 33 33 34 33 36 31 27 24 24 24 24 19 21 19 20 20 19
3 7 2 6 11 7 10 11 6 7 3 10 8 5 15 7 8 20 36 40 32 29 29 28 26 25 24 22 23 23 24 25 24 23 22 22 23 22 24 24 24 22 22 25
12 6 13 7 11 13 11 13 9 13 5 7 8 11 9 6 10 32 48 41 34 31 26 20 16 14 13 13 13 16 18 19 19 18 19 22 22 23 24 26 29 30 31 33
10 8 3 3 4 10 10 10 6 10 4 2 9 10 4 10 9 28 38 37 37 31 24 16 9 3 4 7 10 13 14 15 15 18 19 20 22 23 26 27 29 32 32 34
13 3 5 6 7 7 7 13 7 4 1 9 9 10 11 14 19 15 23 41 38 33 30 23 12 5 1 2 3 4 4 7 10 13 15 19 21 23 26 29 33 35 38 40
11 8 3 8 11 16 3 4 8 7 9 10 4 10 9 19 25 31 39 47 43 41 36 26 16 12 10 8 6 4 1 3 6 10 15 18 22 26 29 32 35 40 44 48
10 9 8 14 2 3 5 13 14 11 12 7 5 19 5 11 28 37 44 43 39 37 34 29 26 22 18 14 13 11 7 3 6 10 16 21 25 29 33 36 40 44 45 47
15 1 4 14 8 5 7 9 7 9 7 14 11 14 9 8 19 39 38 36 32 36 42 40 36 29 24 21 19 16 14 11 13 17 22 26 31 35 38 43 46 47 51 55
13 7 14 22 11 9 9 10 9 11 8 15 28 23 6 6 14 23 25 20 27 39 48 45 39 33 28 26 21 15 13 15 19 22 27 31 37 43 48 54 55 58 63 70
8 12 6 4 6 7 8 10 15 15 13 18 12 22 11 19 16 34 33 33 38 39 42 48 43 35 31 29 22 19 21 25 27 28 31 38 44 50 55 58 60 67 74 79
4 5 5 2 5 5 11 12 20 22 14 17 24 38 27 13 27 31 37 30 29 33 41 45 40 35 32 30 27 28 34 38 38 39 42 47 53 56 60 61 68 74 78 83
11 11 6 9 6 8 17 18 33 22 18 16 26 31 2 10 21 24 26 29 31 34 35 38 40 36 34 37 38 41 48 49 50 47 49 52 57 61 59 67 74 77 81 86
11 11 4 6 3 7 9 2 5 10 13 11 1 8 14 12 12 17 17 23 27 29 31 31 31 31 30 35 46 52 50 49 49 49 51 56 59 58 65 71 73 78 82 84
4 10 4 8 9 15 20 10 15 15 18 18 20 11 16 10 14 26 23 28 28 31 27 23 25 32 42 46 49 54 53 50 52 53 56 58 56 61 68 71 75 79 82 82
5 7 6 7 10 18 6 3 9 13 12 22 27 20 16 13 2 13 36 40 36 34 26 26 30 39 46 52 56 56 54 54 53 55 55 54 57 66 70 73 77 76 78 81
7 1 21 14 11 15 11 9 7 11 14 25 29 21 22 12 32 42 34 28 45 41 37 37 36 41 44 52 58 60 58 56 55 53 52 53 59 65 67 70 72 76 78 81
15 17 10 5 4 15 23 12 15 10 15 28 28 26 28 34 37 43 37 33 40 44 50 49 46 47 51 57 62 64 62 58 53 52 53 55 58 60 63 67 68 71 72 77
5 15 12 19 14 5 46 21 32 41 40 35 36 28 34 45 47 43 42 47 54 59 58 57 54 54 60 63 64 62 59 55 54 55 55 56 56 57 58 63 64 68 66 71
11 12 6 7 10 18 31 38 37 43 54 52 42 40 49 52 54 55 53 50 54 58 61 55 55 58 64 66 64 59 56 56 57 56 58 56 57 57 56 59 59 63 62 67
14 18 14 6 12 16 33 49 56 54 56 51 55 65 62 59 59 63 57 49 52 56 56 50 53 59 64 63 58 56 56 58 56 56 57 57 57 56 57 58 55 57 57 58
20 11 9 11 37 27 32 51 44 42 51 53 58 60 58 53 54 58 52 53 54 50 49 51 54 58 57 54 54 56 59 58 55 56 56 55 55 54 55 59 59 44 50 49
Wind_Direction_500mb
146 112 204 205 200 126 138 189 236 253 266 317 257 265 323 3 60 93 93 88 80 72 66 62 60 57 55 52 51 53 51 63 84 123 154 179 214 238 264 270 265 264 260 261
56 222 230 140 175 205 228 223 258 287 271 172 304 291 62 43 54 84 96 94 93 90 83 80 77 76 73 71 70 67 62 56 51 48 50 38 354 312 281 298 295 288 276 266
176 218 162 167 166 171 217 198 224 240 336 358 343 297 171 67 86 91 93 101 100 96 91 86 82 77 74 69 66 66 65 63 60 57 50 48 37 36 323 294 322 325 315 305
235 226 161 166 184 155 252 216 214 186 57 252 31 281 307 131 89 74 111 116 111 104 96 88 82 76 70 68 65 64 58 53 54 54 55 59 64 64 57 35 11 344 322 311
238 166 161 181 214 159 225 148 136 133 139 66 299 223 258 136 181 173 162 140 128 117 107 99 87 78 74 69 61 58 53 50 45 39 42 50 53 57 58 60 44 16 356 342
248 258 181 190 88 152 137 117 67 58 112 211 229 184 261 190 196 157 174 162 148 131 117 102 88 78 70 63 56 50 41 42 40 38 41 42 47 51 47 47 43 42 40 41
248 231 162 144 89 41 76 67 316 330 335 224 136 155 249 300 310 178 169 167 157 145 135 117 99 80 71 62 47 39 39 43 43 37 36 37 35 29 24 22 22 16 16 11
164 257 172 191 172 177 168 157 169 228 223 288 326 233 269 4 5 155 164 161 160 161 152 132 103 85 78 56 46 41 36 37 37 36 41 41 37 29 20 16 12 7 6 3
144 260 110 80 106 139 178 161 170 106 1 319 245 299 161 88 66 138 161 172 178 176 169 164 152 111 38 41 43 36 30 34 35 32 30 23 13 8 9 6 1 357 354 349
196 104 188 145 107 42 152 156 94 11 258 260 278 266 231 195 187 189 187 193 192 190 191 195 206 236 298 22 10 26 43 38 35 27 16 9 1 356 353 347 343 341 338 336
145 126 215 110 199 175 121 169 75 128 146 184 270 258 220 191 186 192 200 200 202 202 203 210 223 235 237 237 212 183 161 40 19 1 358 354 346 347 344 339 335 332 331 331
204 136 165 198 141 341 232 190 156 185 230 239 159 262 11 192 189 185 200 206 212 215 218 226 232 235 235 229 215 211 213 253 327 337 333 329 327 326 325 325 325 324 324 324
181 196 58 347 357 32 216 215 147 107 80 199 198 261 360 88 157 197 198 214 225 227 227 230 226 232 235 226 218 220 233 263 298 311 316 319 322 322 320 320 320 321 321 320
150 145 173 225 188 130 177 203 183 146 175 216 229 261 158 178 190 193 220 226 256 252 238 236 232 235 227 222 220 232 255 278 289 299 306 310 315 316 318 319 320 320 319 318
132 196 126 25 128 131 194 187 177 195 201 206 221 231 195 204 216 238 251 264 258 252 237 233 230 226 225 224 231 250 254 258 267 278 290 298 303 307 310 312 313 314 314 313
27 147 99 345 313 330 276 192 206 224 233 252 266 267 260 253 243 241 250 245 239 239 232 227 225 225 229 235 243 258 260 261 265 273 287 292 296 300 304 306 309 310 310 310
134 129 96 251 51 48 298 210 212 215 211 217 233 248 114 222 203 226 243 238 236 231 226 225 230 238 245 249 249 261 263 261 262 265 277 283 290 295 299 304 308 310 310 311
131 111 98 153 44 233 256 13 68 222 248 207 230 230 215 243 268 272 251 242 240 227 221 221 230 241 242 253 259 266 257 258 257 263 271 282 289 293 300 305 308 310 312 313
68 133 121 171 206 313 287 204 167 173 260 195 204 211 235 248 276 270 260 247 237 233 230 230 248 258 259 265 268 260 253 252 258 265 275 283 287 296 304 309 311 314 314 313
100 25 180 135 189 220 254 349 147 113 275 213 190 188 194 155 121 258 280 250 234 213 236 261 268 264 265 267 264 255 249 253 260 269 278 284 293 304 309 311 313 315 314 316
100 128 210 209 229 289 236 192 145 110 259 166 181 193 185 181 240 282 282 247 230 236 261 274 264 265 269 267 259 249 249 254 262 272 279 284 296 304 307 311 315 316 316 316
158 163 201 99 137 270 173 114 168 203 163 178 198 218 229 263 273 264 263 253 238 257 272 273 269 269 263 259 252 248 252 260 269 275 279 286 297 304 309 313 314 312 315 316
232 199 182 184 204 195 178 199 224 246 242 230 221 256 278 276 266 254 260 267 269 275 273 266 263 263 255 252 249 250 258 267 275 281 282 291 300 306 311 312 312 312 318 318
245 156 158 120 211 215 213 229 257 254 247 249 256 268 282 269 268 259 271 273 278 275 270 263 258 256 253 251 251 255 262 272 280 281 287 296 301 306 311 312 314 316 320 319
198 137 159 256 273 269 266 264 268 263 254 259 268 279 284 272 271 263 270 274 277 278 268 262 262 254 251 251 254 262 270 277 277 281 289 297 301 307 310 312 316 318 321 322
178 162 178 216 245 225 247 268 272 264 261 272 280 274 281 275 272 278 269 280 278 269 261 262 252 249 250 254 261 267 274 277 278 283 292 297 302 307 310 311 312 314 316 321
Wind_Speed_850mb
5 7 15 26 20 5 8 7 9 10 7 5 12 16 12 26 34 29 30 33 35 37 38 38 36 32 27 21 21 26 21 24 14 9 8 8 8 10 8 15 20 24 23 21
7 14 22 8 9 9 9 7 12 13 3 7 12 20 12 25 18 23 30 34 36 39 43 48 52 53 56 54 52 46 39 29 24 17 12 8 5 6 4 13 15 14 15 20
16 10 7 15 9 10 7 10 7 12 9 1 10 13 7 9 29 31 30 30 34 38 42 45 49 53 55 59 60 60 58 54 49 37 22 14 10 7 1 7 12 19 21 22
11 11 10 9 10 13 5 13 6 5 6 5 5 9 8 8 10 13 21 27 31 33 36 39 44 49 53 55 51 54 55 53 50 44 38 33 29 25 22 15 14 15 17 20
14 13 12 9 13 13 13 7 6 5 6 5 7 2 12 12 8 10 19 26 27 29 32 37 40 42 43 41 42 43 44 41 40 37 33 31 31 30 25 17 10 10 12 15
8 2 9 14 5 8 9 7 8 8 7 1 12 13 9 11 8 11 25 30 29 28 30 32 34 33 34 33 33 34 33 36 31 27 24 24 24 24 19 21 19 20 20 19
3 7 2 6 11 7 10 11 6 7 3 10 8 5 15 7 8 20 36 40 32 29 29 28 26 25 24 22 23 23 24 25 24 23 22 22 23 22 24 24 24 22 22 25
12 6 13 7 11 13 11 13 9 13 5 7 8 11 9 6 10 32 48 41 34 31 26 20 16 14 13 13 13 16 18 19 19 18 19 22 22 23 24 26 29 30 31 33
10 8 3 3 4 10 10 10 6 10 4 2 9 10 4 10 9 28 38 37 37 31 24 16 9 3 4 7 10 13 14 15 15 18 19 20 22 23 26 27 29 32 32 34
13 3 5 6 7 7 7 13 7 4 1 9 9 10 11 14 19 15 23 41 38 33 30 23 12 5 1 2 3 4 4 7 10 13 15 19 21 23 26 29 33 35 38 40
11 8 3 8 11 16 3 4 8 7 9 10 4 10 9 19 25 31 39 47 43 41 36 26 16 12 10 8 6 4 1 3 6 10 15 18 22 26 29 32 35 40 44 48
10 9 8 14 2 3 5 13 14 11 12 7 5 19 5 11 28 37 44 43 39 37 34 29 26 22 18 14 13 11 7 3 6 10 16 21 25 29 33 36 40 44 45 47
15 1 4 14 8 5 7 9 7 9 7 14 11 14 9 8 19 39 38 36 32 36 42 40 36 29 24 21 19 16 14 11 13 17 22 26 31 35 38 43 46 47 51 55
13 7 14 22 11 9 9 10 9 11 8 15 28 23 6 6 14 23 25 20 27 39 48 45 39 33 28 26 21 15 13 15 19 22 27 31 37 43 48 54 55 58 63 70
8 12 6 4 6 7 8 10 15 15 13 18 12 22 11 19 16 34 33 33 38 39 42 48 43 35 31 29 22 19 21 25 27 28 31 38 44 50 55 58 60 67 74 79
4 5 5 2 5 5 11 12 20 22 14 17 24 38 27 13 27 31 37 30 29 33 41 45 40 35 32 30 27 28 34 38 38 39 42 47 53 56 60 61 68 74 78 83
11 11 6 9 6 8 17 18 33 22 18 16 26 31 2 10 21 24 26 29 31 34 35 38 40 36 34 37 38 41 48 49 50 47 49 52 57 61 59 67 74 77 81 86
11 11 4 6 3 7 9 2 5 10 13 11 1 8 14 12 12 17 17 23 27 29 31 31 31 31 30 35 46 52 50 49 49 49 51 56 59 58 65 71 73 78 82 84
4 10 4 8 9 15 20 10 15 15 18 18 20 11 16 10 14 26 23 28 28 31 27 23 25 32 42 46 49 54 53 50 52 53 56 58 56 61 68 71 75 79 82 82
5 7 6 7 10 18 6 3 9 13 12 22 27 20 16 13 2 13 36 40 36 34 26 26 30 39 46 52 56 56 54 54 53 55 55 54 57 66 70 73 77 76 78 81
7 1 21 14 11 15 11 9 7 11 14 25 29 21 22 12 32 42 34 28 45 41 37 37 36 41 44 52 58 60 58 56 55 53 52 53 59 65 67 70 72 76 78 81
15 17 10 5 4 15 23 12 15 10 15 28 28 26 28 34 37 43 37 33 40 44 50 49 46 47 51 57 62 64 62 58 53 52 53 55 58 60 63 67 68 71 72 77
5 15 12 19 14 5 46 21 32 41 40 35 36 28 34 45 47 43 42 47 54 59 58 57 54 54 60 63 64 62 59 55 54 55 55 56 56 57 58 63 64 68 66 71
11 12 6 7 10 18 31 38 37 43 54 52 42 40 49 52 54 55 53 50 54 58 61 55 55 58 64 66 64 59 56 56 57 56 58 56 57 57 56 59 59 63 62 67
14 18 14 6 12 16 33 49 56 54 56 51 55 65 62 59 59 63 57 49 52 56 56 50 53 59 64 63 58 56 56 58 56 56 57 57 57 56 57 58 55 57 57 58
20 11 9 11 37 27 32 51 44 42 51 53 58 60 58 53 54 58 52 53 54 50 49 51 54 58 57 54 54 56 59 58 55 56 56 55 55 54 55 59 59 44 50 49
Wind_Direction_850mb
146 112 204 205 200 126 138 189 236 253 266 317 257 265 323 3 60 93 93 88 80 72 66 62 60 57 55 52 51 53 51 63 84 123 154 179 214 238 264 270 265 264 260 261
56 222 230 140 175 205 228 223 258 287 271 172 304 291 62 43 54 84 96 94 93 90 83 80 77 76 73 71 70 67 62 56 51 48 50 38 354 312 281 298 295 288 276 266
176 218 162 167 166 171 217 198 224 240 336 358 343 297 171 67 86 91 93 101 100 96 91 86 82 77 74 69 66 66 65 63 60 57 50 48 37 36 323 294 322 325 315 305
235 226 161 166 184 155 252 216 214 186 57 252 31 281 307 131 89 74 111 116 111 104 96 88 82 76 70 68 65 64 58 53 54 54 55 59 64 64 57 35 11 344 322 311
238 166 161 181 214 159 225 148 136 133 139 66 299 223 258 136 181 173 162 140 128 117 107 99 87 78 74 69 61 58 53 50 45 39 42 50 53 57 58 60 44 16 356 342
248 258 181 190 88 152 137 117 67 58 112 211 229 184 261 190 196 157 174 162 148 131 117 102 88 78 70 63 56 50 41 42 40 38 41 42 47 51 47 47 43 42 40 41
248 231 162 144 89 41 76 67 316 330 335 224 136 155 249 300 310 178 169 167 157 145 135 117 99 80 71 62 47 39 39 43 43 37 36 37 35 29 24 22 22 16 16 11
164 257 172 191 172 177 168 157 169 228 223 288 326 233 269 4 5 155 164 161 160 161 152 132 103 85 78 56 46 41 36 37 37 36 41 41 37 29 20 16 12 7 6 3
144 260 110 80 106 139 178 161 170 106 1 319 245 299 161 88 66 138 161 172 178 176 169 164 152 111 38 41 43 36 30 34 35 32 30 23 13 8 9 6 1 357 354 349
196 104 188 145 107 42 152 156 94 11 258 260 278 266 231 195 187 189 187 193 192 190 191 195 206 236 298 22 10 26 43 38 35 27 16 9 1 356 353 347 343 341 338 336
145 126 215 110 199 175 121 169 75 128 146 184 270 258 220 191 186 192 200 200 202 202 203 210 223 235 237 237 212 183 161 40 19 1 358 354 346 347 344 339 335 332 331 331
204 136 165 198 141 341 232 190 156 185 230 239 159 262 11 192 189 185 200 206 212 215 218 226 232 235 235 229 215 211 213 253 327 337 333 329 327 326 325 325 325 324 324 324
181 196 58 347 357 32 216 215 147 107 80 199 198 261 360 88 157 197 198 214 225 227 227 230 226 232 235 226 218 220 233 263 298 311 316 319 322 322 320 320 320 321 321 320
150 145 173 225 188 130 177 203 183 146 175 216 229 261 158 178 190 193 220 226 256 252 238 236 232 235 227 222 220 232 255 278 289 299 306 310 315 316 318 319 320 320 319 318
132 196 126 25 128 131 194 187 177 195 201 206 221 231 195 204 216 238 251 264 258 252 237 233 230 226 225 224 231 250 254 258 267 278 290 298 303 307 310 312 313 314 314 313
27 147 99 345 313 330 276 192 206 224 233 252 266 267 260 253 243 241 250 245 239 239 232 227 225 225 229 235 243 258 260 261 265 273 287 292 296 300 304 306 309 310 310 310
134 129 96 251 51 48 298 210 212 215 211 217 233 248 114 222 203 226 243 238 236 231 226 225 230 238 245 249 249 261 263 261 262 265 277 283 290 295 299 304 308 310 310 311
131 111 98 153 44 233 256 13 68 222 248 207 230 230 215 243 268 272 251 242 240 227 221 221 230 241 242 253 259 266 257 258 257 263 271 282 289 293 300 305 308 310 312 313
68 133 121 171 206 313 287 204 167 173 260 195 204 211 235 248 276 270 260 247 237 233 230 230 248 258 259 265 268 260 253 252 258 265 275 283 287 296 304 309 311 314 314 313
100 25 180 135 189 220 254 349 147 113 275 213 190 188 194 155 121 258 280 250 234 213 236 261 268 264 265 267 264 255 249 253 260 269 278 284 293 304 309 311 313 315 314 316
100 128 210 209 229 289 236 192 145 110 259 166 181 193 185 181 240 282 282 247 230 236 261 274 264 265 269 267 259 249 249 254 262 272 279 284 296 304 307 311 315 316 316 316
158 163 201 99 137 270 173 114 168 203 163 178 198 218 229 263 273 264 263 253 238 257 272 273 269 269 263 259 252 248 252 260 269 275 279 286 297 304 309 313 314 312 315 316
232 199 182 184 204 195 178 199 224 246 242 230 221 256 278 276 266 254 260 267 269 275 273 266 263 263 255 252 249 250 258 267 275 281 282 291 300 306 311 312 312 312 318 318
245 156 158 120 211 215 213 229 257 254 247 249 256 268 282 269 268 259 271 273 278 275 270 263 258 256 253 251 251 255 262 272 280 281 287 296 301 306 311 312 314 316 320 319
198 137 159 256 273 269 266 264 268 263 254 259 268 279 284 272 271 263 270 274 277 278 268 262 262 254 251 251 254 262 270 277 277 281 289 297 301 307 310 312 316 318 321 322
178 162 178 216 245 225 247 268 272 264 261 272 280 274 281 275 272 278 269 280 278 269 261 262 252 249 250 254 261 267 274 277 278 283 292 297 302 307 310 311 312 314 316 321